Year,Month,Day,Hour,Minute,Value (Times are PST for windgust in km/hr)
2018,04,10,00,00,29.00
2018,04,10,00,01,30.60
2018,04,10,00,02,27.40
2018,04,10,00,03,27.40
2018,04,10,00,04,27.40
2018,04,10,00,05,27.40
2018,04,10,00,06,24.20
2018,04,10,00,07,29.00
2018,04,10,00,08,25.70
2018,04,10,00,09,30.60
2018,04,10,00,10,24.20
2018,04,10,00,11,24.20
2018,04,10,00,12,27.40
2018,04,10,00,13,27.40
2018,04,10,00,14,24.20
2018,04,10,00,15,27.40
2018,04,10,00,16,24.20
2018,04,10,00,17,24.20
2018,04,10,00,18,25.70
2018,04,10,00,19,27.40
2018,04,10,00,20,24.20
2018,04,10,00,21,27.40
2018,04,10,00,22,22.50
2018,04,10,00,23,22.50
2018,04,10,00,24,27.40
2018,04,10,00,25,25.70
2018,04,10,00,26,24.20
2018,04,10,00,27,25.70
2018,04,10,00,28,22.50
2018,04,10,00,29,24.20
2018,04,10,00,30,25.70
2018,04,10,00,31,27.40
2018,04,10,00,32,25.70
2018,04,10,00,33,22.50
2018,04,10,00,34,32.20
2018,04,10,00,35,27.40
2018,04,10,00,36,22.50
2018,04,10,00,37,33.80
2018,04,10,00,38,29.00
2018,04,10,00,39,30.60
2018,04,10,00,40,24.20
2018,04,10,00,41,27.40
2018,04,10,00,42,25.70
2018,04,10,00,43,24.20
2018,04,10,00,44,17.70
2018,04,10,00,45,22.50
2018,04,10,00,46,19.30
2018,04,10,00,47,17.70
2018,04,10,00,48,16.10
2018,04,10,00,49,17.70
2018,04,10,00,50,20.90
2018,04,10,00,51,19.30
2018,04,10,00,52,24.20
2018,04,10,00,53,24.20
2018,04,10,00,54,27.40
2018,04,10,00,55,25.70
2018,04,10,00,56,24.20
2018,04,10,00,57,27.40
2018,04,10,00,58,32.20
2018,04,10,00,59,30.60
2018,04,10,01,00,29.00
2018,04,10,01,01,27.40
2018,04,10,01,02,27.40
2018,04,10,01,03,27.40
2018,04,10,01,04,30.60
2018,04,10,01,05,27.40
2018,04,10,01,06,29.00
2018,04,10,01,07,30.60
2018,04,10,01,08,27.40
2018,04,10,01,09,29.00
2018,04,10,01,10,29.00
2018,04,10,01,11,29.00
2018,04,10,01,12,29.00
2018,04,10,01,13,32.20
2018,04,10,01,14,27.40
2018,04,10,01,15,32.20
2018,04,10,01,16,30.60
2018,04,10,01,17,32.20
2018,04,10,01,18,25.70
2018,04,10,01,19,27.40
2018,04,10,01,20,29.00
2018,04,10,01,21,25.70
2018,04,10,01,22,25.70
2018,04,10,01,23,27.40
2018,04,10,01,24,30.60
2018,04,10,01,25,25.70
2018,04,10,01,26,22.50
2018,04,10,01,27,24.20
2018,04,10,01,28,25.70
2018,04,10,01,29,24.20
2018,04,10,01,30,25.70
2018,04,10,01,31,24.20
2018,04,10,01,32,20.90
2018,04,10,01,33,27.40
2018,04,10,01,34,27.40
2018,04,10,01,35,24.20
2018,04,10,01,36,22.50
2018,04,10,01,37,22.50
2018,04,10,01,38,27.40
2018,04,10,01,39,27.40
2018,04,10,01,40,25.70
2018,04,10,01,41,25.70
2018,04,10,01,42,25.70
2018,04,10,01,43,27.40
2018,04,10,01,44,27.40
2018,04,10,01,45,27.40
2018,04,10,01,46,25.70
2018,04,10,01,47,27.40
2018,04,10,01,48,27.40
2018,04,10,01,49,25.70
2018,04,10,01,50,25.70
2018,04,10,01,51,22.50
2018,04,10,01,52,24.20
2018,04,10,01,53,24.20
2018,04,10,01,54,24.20
2018,04,10,01,55,25.70
2018,04,10,01,56,25.70
2018,04,10,01,57,25.70
2018,04,10,01,58,27.40
2018,04,10,01,59,24.20
2018,04,10,02,00,24.20
2018,04,10,02,01,25.70
2018,04,10,02,02,25.70
2018,04,10,02,03,25.70
2018,04,10,02,04,22.50
2018,04,10,02,05,20.90
2018,04,10,02,06,17.70
2018,04,10,02,07,19.30
2018,04,10,02,08,22.50
2018,04,10,02,09,20.90
2018,04,10,02,10,22.50
2018,04,10,02,11,20.90
2018,04,10,02,12,22.50
2018,04,10,02,13,20.90
2018,04,10,02,14,22.50
2018,04,10,02,15,19.30
2018,04,10,02,16,22.50
2018,04,10,02,17,22.50
2018,04,10,02,18,19.30
2018,04,10,02,19,22.50
2018,04,10,02,20,22.50
2018,04,10,02,21,20.90
2018,04,10,02,22,20.90
2018,04,10,02,23,19.30
2018,04,10,02,24,16.10
2018,04,10,02,25,25.70
2018,04,10,02,26,24.20
2018,04,10,02,27,22.50
2018,04,10,02,28,22.50
2018,04,10,02,29,25.70
2018,04,10,02,30,25.70
2018,04,10,02,31,19.30
2018,04,10,02,32,17.70
2018,04,10,02,33,17.70
2018,04,10,02,34,19.30
2018,04,10,02,35,19.30
2018,04,10,02,36,16.10
2018,04,10,02,37,17.70
2018,04,10,02,38,19.30
2018,04,10,02,39,16.10
2018,04,10,02,40,17.70
2018,04,10,02,41,19.30
2018,04,10,02,42,17.70
2018,04,10,02,43,16.10
2018,04,10,02,44,14.50
2018,04,10,02,45,14.50
2018,04,10,02,46,14.50
2018,04,10,02,47,12.90
2018,04,10,02,48,16.10
2018,04,10,02,49,14.50
2018,04,10,02,50,12.90
2018,04,10,02,51,16.10
2018,04,10,02,52,14.50
2018,04,10,02,53,16.10
2018,04,10,02,54,17.70
2018,04,10,02,55,17.70
2018,04,10,02,56,14.50
2018,04,10,02,57,14.50
2018,04,10,02,58,19.30
2018,04,10,02,59,17.70
2018,04,10,03,00,20.90
2018,04,10,03,01,19.30
2018,04,10,03,02,20.90
2018,04,10,03,03,20.90
2018,04,10,03,04,22.50
2018,04,10,03,05,22.50
2018,04,10,03,06,20.90
2018,04,10,03,07,22.50
2018,04,10,03,08,22.50
2018,04,10,03,09,19.30
2018,04,10,03,10,17.70
2018,04,10,03,11,16.10
2018,04,10,03,12,14.50
2018,04,10,03,13,20.90
2018,04,10,03,14,17.70
2018,04,10,03,15,16.10
2018,04,10,03,16,17.70
2018,04,10,03,17,19.30
2018,04,10,03,18,17.70
2018,04,10,03,19,19.30
2018,04,10,03,20,17.70
2018,04,10,03,21,14.50
2018,04,10,03,22,17.70
2018,04,10,03,23,17.70
2018,04,10,03,24,12.90
2018,04,10,03,25,11.30
2018,04,10,03,26,12.90
2018,04,10,03,27,8.10
2018,04,10,03,28,14.50
2018,04,10,03,29,14.50
2018,04,10,03,30,12.90
2018,04,10,03,31,12.90
2018,04,10,03,32,14.50
2018,04,10,03,33,12.90
2018,04,10,03,34,12.90
2018,04,10,03,35,12.90
2018,04,10,03,36,12.90
2018,04,10,03,37,14.50
2018,04,10,03,38,19.30
2018,04,10,03,39,14.50
2018,04,10,03,40,17.70
2018,04,10,03,41,16.10
2018,04,10,03,42,17.70
2018,04,10,03,43,14.50
2018,04,10,03,44,14.50
2018,04,10,03,45,16.10
2018,04,10,03,46,16.10
2018,04,10,03,47,16.10
2018,04,10,03,48,19.30
2018,04,10,03,49,17.70
2018,04,10,03,50,22.50
2018,04,10,03,51,16.10
2018,04,10,03,52,14.50
2018,04,10,03,53,14.50
2018,04,10,03,54,16.10
2018,04,10,03,55,17.70
2018,04,10,03,56,17.70
2018,04,10,03,57,14.50
2018,04,10,03,58,12.90
2018,04,10,03,59,12.90
2018,04,10,04,00,14.50
2018,04,10,04,01,17.70
2018,04,10,04,02,11.30
2018,04,10,04,03,9.60
2018,04,10,04,04,12.90
2018,04,10,04,05,12.90
2018,04,10,04,06,14.50
2018,04,10,04,07,19.30
2018,04,10,04,08,17.70
2018,04,10,04,09,12.90
2018,04,10,04,10,12.90
2018,04,10,04,11,16.10
2018,04,10,04,12,19.30
2018,04,10,04,13,20.90
2018,04,10,04,14,17.70
2018,04,10,04,15,20.90
2018,04,10,04,16,17.70
2018,04,10,04,17,17.70
2018,04,10,04,18,17.70
2018,04,10,04,19,17.70
2018,04,10,04,20,16.10
2018,04,10,04,21,17.70
2018,04,10,04,22,17.70
2018,04,10,04,23,17.70
2018,04,10,04,24,16.10
2018,04,10,04,25,19.30
2018,04,10,04,26,17.70
2018,04,10,04,27,17.70
2018,04,10,04,28,17.70
2018,04,10,04,29,19.30
2018,04,10,04,30,19.30
2018,04,10,04,31,14.50
2018,04,10,04,32,9.60
2018,04,10,04,33,16.10
2018,04,10,04,34,14.50
2018,04,10,04,35,14.50
2018,04,10,04,36,14.50
2018,04,10,04,37,14.50
2018,04,10,04,38,14.50
2018,04,10,04,39,16.10
2018,04,10,04,40,19.30
2018,04,10,04,41,16.10
2018,04,10,04,42,14.50
2018,04,10,04,43,14.50
2018,04,10,04,44,19.30
2018,04,10,04,45,22.50
2018,04,10,04,46,17.70
2018,04,10,04,47,17.70
2018,04,10,04,48,16.10
2018,04,10,04,49,16.10
2018,04,10,04,50,14.50
2018,04,10,04,51,12.90
2018,04,10,04,52,12.90
2018,04,10,04,53,14.50
2018,04,10,04,54,14.50
2018,04,10,04,55,11.30
2018,04,10,04,56,14.50
2018,04,10,04,57,16.10
2018,04,10,04,58,16.10
2018,04,10,04,59,17.70
2018,04,10,05,00,19.30
2018,04,10,05,01,20.90
2018,04,10,05,02,19.30
2018,04,10,05,03,20.90
2018,04,10,05,04,19.30
2018,04,10,05,05,16.10
2018,04,10,05,06,17.70
2018,04,10,05,07,17.70
2018,04,10,05,08,17.70
2018,04,10,05,09,19.30
2018,04,10,05,10,17.70
2018,04,10,05,11,17.70
2018,04,10,05,12,16.10
2018,04,10,05,13,14.50
2018,04,10,05,14,14.50
2018,04,10,05,15,17.70
2018,04,10,05,16,16.10
2018,04,10,05,17,16.10
2018,04,10,05,18,17.70
2018,04,10,05,19,17.70
2018,04,10,05,20,14.50
2018,04,10,05,21,14.50
2018,04,10,05,22,16.10
2018,04,10,05,23,16.10
2018,04,10,05,24,14.50
2018,04,10,05,25,14.50
2018,04,10,05,26,14.50
2018,04,10,05,27,14.50
2018,04,10,05,28,14.50
2018,04,10,05,29,16.10
2018,04,10,05,30,12.90
2018,04,10,05,31,9.60
2018,04,10,05,32,9.60
2018,04,10,05,33,12.90
2018,04,10,05,34,12.90
2018,04,10,05,35,14.50
2018,04,10,05,36,12.90
2018,04,10,05,37,9.60
2018,04,10,05,38,9.60
2018,04,10,05,39,8.10
2018,04,10,05,40,6.40
2018,04,10,05,41,6.40
2018,04,10,05,42,6.40
2018,04,10,05,43,3.20
2018,04,10,05,44,4.80
2018,04,10,05,45,6.40
2018,04,10,05,46,8.10
2018,04,10,05,47,8.10
2018,04,10,05,48,8.10
2018,04,10,05,49,6.40
2018,04,10,05,50,9.60
2018,04,10,05,51,9.60
2018,04,10,05,52,8.10
2018,04,10,05,53,9.60
2018,04,10,05,54,8.10
2018,04,10,05,55,9.60
2018,04,10,05,56,12.90
2018,04,10,05,57,14.50
2018,04,10,05,58,11.30
2018,04,10,05,59,9.60
2018,04,10,06,00,6.40
2018,04,10,06,01,6.40
2018,04,10,06,02,4.80
2018,04,10,06,03,4.80
2018,04,10,06,04,4.80
2018,04,10,06,05,4.80
2018,04,10,06,06,4.80
2018,04,10,06,07,6.40
2018,04,10,06,08,6.40
2018,04,10,06,09,6.40
2018,04,10,06,10,4.80
2018,04,10,06,11,3.20
2018,04,10,06,12,3.20
2018,04,10,06,13,3.20
2018,04,10,06,14,3.20
2018,04,10,06,15,3.20
2018,04,10,06,16,3.20
2018,04,10,06,17,3.20
2018,04,10,06,18,4.80
2018,04,10,06,19,6.40
2018,04,10,06,20,6.40
2018,04,10,06,21,6.40
2018,04,10,06,22,6.40
2018,04,10,06,23,6.40
2018,04,10,06,24,6.40
2018,04,10,06,25,6.40
2018,04,10,06,26,6.40
2018,04,10,06,27,6.40
2018,04,10,06,28,6.40
2018,04,10,06,29,6.40
2018,04,10,06,30,6.40
2018,04,10,06,31,6.40
2018,04,10,06,32,4.80
2018,04,10,06,33,3.20
2018,04,10,06,34,3.20
2018,04,10,06,35,3.20
2018,04,10,06,36,4.80
2018,04,10,06,37,4.80
2018,04,10,06,38,4.80
2018,04,10,06,39,4.80
2018,04,10,06,40,3.20
2018,04,10,06,41,3.20
2018,04,10,06,42,4.80
2018,04,10,06,43,4.80
2018,04,10,06,44,4.80
2018,04,10,06,45,4.80
2018,04,10,06,46,6.40
2018,04,10,06,47,6.40
2018,04,10,06,48,4.80
2018,04,10,06,49,4.80
2018,04,10,06,50,4.80
2018,04,10,06,51,6.40
2018,04,10,06,52,6.40
2018,04,10,06,53,6.40
2018,04,10,06,54,6.40
2018,04,10,06,55,4.80
2018,04,10,06,56,4.80
2018,04,10,06,57,4.80
2018,04,10,06,58,4.80
2018,04,10,06,59,4.80
2018,04,10,07,00,6.40
2018,04,10,07,01,8.10
2018,04,10,07,02,8.10
2018,04,10,07,03,8.10
2018,04,10,07,04,8.10
2018,04,10,07,05,8.10
2018,04,10,07,06,8.10
2018,04,10,07,07,8.10
2018,04,10,07,08,6.40
2018,04,10,07,09,4.80
2018,04,10,07,10,6.40
2018,04,10,07,11,6.40
2018,04,10,07,12,6.40
2018,04,10,07,13,6.40
2018,04,10,07,14,6.40
2018,04,10,07,15,8.10
2018,04,10,07,16,9.60
2018,04,10,07,17,12.90
2018,04,10,07,18,12.90
2018,04,10,07,19,12.90
2018,04,10,07,20,12.90
2018,04,10,07,21,12.90
2018,04,10,07,22,12.90
2018,04,10,07,23,14.50
2018,04,10,07,24,14.50
2018,04,10,07,25,16.10
2018,04,10,07,26,14.50
2018,04,10,07,27,14.50
2018,04,10,07,28,16.10
2018,04,10,07,29,17.70
2018,04,10,07,30,17.70
2018,04,10,07,31,16.10
2018,04,10,07,32,16.10
2018,04,10,07,33,12.90
2018,04,10,07,34,16.10
2018,04,10,07,35,14.50
2018,04,10,07,36,14.50
2018,04,10,07,37,16.10
2018,04,10,07,38,14.50
2018,04,10,07,39,14.50
2018,04,10,07,40,14.50
2018,04,10,07,41,12.90
2018,04,10,07,42,12.90
2018,04,10,07,43,12.90
2018,04,10,07,44,14.50
2018,04,10,07,45,16.10
2018,04,10,07,46,16.10
2018,04,10,07,47,16.10
2018,04,10,07,48,14.50
2018,04,10,07,49,16.10
2018,04,10,07,50,14.50
2018,04,10,07,51,14.50
2018,04,10,07,52,12.90
2018,04,10,07,53,9.60
2018,04,10,07,54,9.60
2018,04,10,07,55,12.90
2018,04,10,07,56,12.90
2018,04,10,07,57,12.90
2018,04,10,07,58,14.50
2018,04,10,07,59,12.90
2018,04,10,08,00,12.90
2018,04,10,08,01,14.50
2018,04,10,08,02,14.50
2018,04,10,08,03,12.90
2018,04,10,08,04,9.60
2018,04,10,08,05,11.30
2018,04,10,08,06,9.60
2018,04,10,08,07,9.60
2018,04,10,08,08,8.10
2018,04,10,08,09,6.40
2018,04,10,08,10,8.10
2018,04,10,08,11,8.10
2018,04,10,08,12,8.10
2018,04,10,08,13,6.40
2018,04,10,08,14,4.80
2018,04,10,08,15,4.80
2018,04,10,08,16,8.10
2018,04,10,08,17,6.40
2018,04,10,08,18,6.40
2018,04,10,08,19,6.40
2018,04,10,08,20,8.10
2018,04,10,08,21,4.80
2018,04,10,08,22,4.80
2018,04,10,08,23,3.20
2018,04,10,08,24,4.80
2018,04,10,08,25,4.80
2018,04,10,08,26,3.20
2018,04,10,08,28,3.20
2018,04,10,08,29,4.80
2018,04,10,08,30,6.40
2018,04,10,08,31,11.30
2018,04,10,08,32,6.40
2018,04,10,08,33,9.60
2018,04,10,08,34,12.90
2018,04,10,08,35,12.90
2018,04,10,08,36,16.10
2018,04,10,08,37,16.10
2018,04,10,08,38,16.10
2018,04,10,08,39,12.90
2018,04,10,08,40,16.10
2018,04,10,08,41,12.90
2018,04,10,08,42,8.10
2018,04,10,08,43,6.40
2018,04,10,08,44,4.80
2018,04,10,08,45,6.40
2018,04,10,08,46,9.60
2018,04,10,08,47,11.30
2018,04,10,08,48,14.50
2018,04,10,08,49,17.70
2018,04,10,08,50,19.30
2018,04,10,08,51,17.70
2018,04,10,08,52,16.10
2018,04,10,08,53,16.10
2018,04,10,08,54,16.10
2018,04,10,08,55,17.70
2018,04,10,08,56,22.50
2018,04,10,08,57,16.10
2018,04,10,08,58,22.50
2018,04,10,08,59,22.50
2018,04,10,09,00,17.70
2018,04,10,09,01,22.50
2018,04,10,09,02,20.90
2018,04,10,09,03,20.90
2018,04,10,09,04,19.30
2018,04,10,09,05,24.20
2018,04,10,09,06,24.20
2018,04,10,09,07,25.70
2018,04,10,09,08,22.50
2018,04,10,09,09,19.30
2018,04,10,09,10,22.50
2018,04,10,09,11,22.50
2018,04,10,09,12,22.50
2018,04,10,09,13,16.10
2018,04,10,09,14,17.70
2018,04,10,09,15,20.90
2018,04,10,09,16,20.90
2018,04,10,09,17,19.30
2018,04,10,09,18,12.90
2018,04,10,09,19,12.90
2018,04,10,09,20,9.60
2018,04,10,09,21,17.70
2018,04,10,09,22,19.30
2018,04,10,09,23,19.30
2018,04,10,09,24,12.90
2018,04,10,09,25,20.90
2018,04,10,09,26,22.50
2018,04,10,09,27,22.50
2018,04,10,09,28,20.90
2018,04,10,09,29,20.90
2018,04,10,09,30,17.70
2018,04,10,09,31,22.50
2018,04,10,09,32,20.90
2018,04,10,09,33,25.70
2018,04,10,09,34,32.20
2018,04,10,09,35,30.60
2018,04,10,09,36,24.20
2018,04,10,09,37,25.70
2018,04,10,09,38,32.20
2018,04,10,09,39,35.40
2018,04,10,09,40,29.00
2018,04,10,09,41,35.40
2018,04,10,09,42,40.20
2018,04,10,09,43,40.20
2018,04,10,09,44,37.00
2018,04,10,09,45,37.00
2018,04,10,09,46,37.00
2018,04,10,09,47,35.40
2018,04,10,09,48,38.60
2018,04,10,09,49,40.20
2018,04,10,09,50,38.60
2018,04,10,09,51,37.00
2018,04,10,09,52,40.20
2018,04,10,09,53,25.70
2018,04,10,09,54,22.50
2018,04,10,09,55,22.50
2018,04,10,09,56,12.90
2018,04,10,09,57,19.30
2018,04,10,09,58,20.90
2018,04,10,09,59,22.50
2018,04,10,10,00,27.40
2018,04,10,10,01,22.50
2018,04,10,10,02,19.30
2018,04,10,10,03,17.70
2018,04,10,10,04,19.30
2018,04,10,10,05,14.50
2018,04,10,10,06,12.90
2018,04,10,10,07,9.60
2018,04,10,10,08,8.10
2018,04,10,10,09,4.80
2018,04,10,10,10,3.20
2018,04,10,10,11,6.40
2018,04,10,10,12,11.30
2018,04,10,10,13,6.40
2018,04,10,10,14,4.80
2018,04,10,10,15,11.30
2018,04,10,10,16,16.10
2018,04,10,10,17,16.10
2018,04,10,10,18,27.40
2018,04,10,10,19,24.20
2018,04,10,10,20,17.70
2018,04,10,10,21,22.50
2018,04,10,10,22,25.70
2018,04,10,10,23,24.20
2018,04,10,10,24,22.50
2018,04,10,10,25,19.30
2018,04,10,10,26,16.10
2018,04,10,10,27,19.30
2018,04,10,10,28,41.80
2018,04,10,10,29,33.80
2018,04,10,10,30,30.60
2018,04,10,10,31,19.30
2018,04,10,10,32,32.20
2018,04,10,10,33,38.60
2018,04,10,10,34,45.10
2018,04,10,10,35,29.00
2018,04,10,10,36,27.40
2018,04,10,10,37,30.60
2018,04,10,10,38,35.40
2018,04,10,10,39,20.90
2018,04,10,10,40,35.40
2018,04,10,10,41,22.50
2018,04,10,10,42,37.00
2018,04,10,10,43,32.20
2018,04,10,10,44,35.40
2018,04,10,10,45,41.80
2018,04,10,10,46,22.50
2018,04,10,10,47,29.00
2018,04,10,10,48,38.60
2018,04,10,10,49,32.20
2018,04,10,10,50,29.00
2018,04,10,10,51,22.50
2018,04,10,10,52,12.90
2018,04,10,10,53,14.50
2018,04,10,10,54,20.90
2018,04,10,10,55,27.40
2018,04,10,10,56,22.50
2018,04,10,10,57,20.90
2018,04,10,10,58,20.90
2018,04,10,10,59,24.20
2018,04,10,11,00,17.70
2018,04,10,11,01,30.60
2018,04,10,11,02,32.20
2018,04,10,11,03,33.80
2018,04,10,11,04,29.00
2018,04,10,11,05,19.30
2018,04,10,11,06,16.10
2018,04,10,11,07,25.70
2018,04,10,11,08,24.20
2018,04,10,11,09,27.40
2018,04,10,11,10,35.40
2018,04,10,11,11,19.30
2018,04,10,11,12,24.20
2018,04,10,11,13,25.70
2018,04,10,11,14,20.90
2018,04,10,11,15,25.70
2018,04,10,11,16,43.50
2018,04,10,11,17,33.80
2018,04,10,11,18,35.40
2018,04,10,11,19,46.70
2018,04,10,11,20,30.60
2018,04,10,11,21,38.60
2018,04,10,11,22,43.50
2018,04,10,11,23,45.10
2018,04,10,11,24,35.40
2018,04,10,11,25,40.20
2018,04,10,11,26,37.00
2018,04,10,11,27,38.60
2018,04,10,11,28,30.60
2018,04,10,11,29,41.80
2018,04,10,11,30,32.20
2018,04,10,11,31,29.00
2018,04,10,11,32,29.00
2018,04,10,11,33,29.00
2018,04,10,11,34,20.90
2018,04,10,11,35,33.80
2018,04,10,11,36,37.00
2018,04,10,11,37,32.20
2018,04,10,11,38,25.70
2018,04,10,11,39,38.60
2018,04,10,11,40,35.40
2018,04,10,11,41,30.60
2018,04,10,11,42,20.90
2018,04,10,11,43,37.00
2018,04,10,11,44,22.50
2018,04,10,11,45,20.90
2018,04,10,11,46,37.00
2018,04,10,11,47,45.10
2018,04,10,11,48,41.80
2018,04,10,11,49,43.50
2018,04,10,11,50,30.60
2018,04,10,11,51,29.00
2018,04,10,11,52,22.50
2018,04,10,11,53,12.90
2018,04,10,11,54,29.00
2018,04,10,11,55,33.80
2018,04,10,11,56,40.20
2018,04,10,11,57,29.00
2018,04,10,11,58,25.70
2018,04,10,11,59,29.00
2018,04,10,12,00,53.10
2018,04,10,12,01,35.40
2018,04,10,12,02,29.00
2018,04,10,12,03,17.70
2018,04,10,12,04,29.00
2018,04,10,12,05,43.50
2018,04,10,12,06,40.20
2018,04,10,12,07,37.00
2018,04,10,12,08,37.00
2018,04,10,12,09,35.40
2018,04,10,12,10,35.40
2018,04,10,12,11,35.40
2018,04,10,12,12,32.20
2018,04,10,12,13,43.50
2018,04,10,12,14,35.40
2018,04,10,12,15,41.80
2018,04,10,12,16,32.20
2018,04,10,12,17,29.00
2018,04,10,12,18,27.40
2018,04,10,12,19,37.00
2018,04,10,12,20,46.70
2018,04,10,12,21,45.10
2018,04,10,12,22,37.00
2018,04,10,12,23,30.60
2018,04,10,12,24,33.80
2018,04,10,12,25,37.00
2018,04,10,12,26,37.00
2018,04,10,12,27,35.40
2018,04,10,12,28,45.10
2018,04,10,12,29,38.60
2018,04,10,12,30,29.00
2018,04,10,12,31,32.20
2018,04,10,12,32,29.00
2018,04,10,12,33,24.20
2018,04,10,12,34,29.00
2018,04,10,12,35,32.20
2018,04,10,12,36,24.20
2018,04,10,12,37,37.00
2018,04,10,12,38,45.10
2018,04,10,12,39,38.60
2018,04,10,12,40,29.00
2018,04,10,12,41,40.20
2018,04,10,12,42,43.50
2018,04,10,12,43,37.00
2018,04,10,12,44,41.80
2018,04,10,12,45,33.80
2018,04,10,12,46,35.40
2018,04,10,12,47,37.00
2018,04,10,12,48,37.00
2018,04,10,12,49,33.80
2018,04,10,12,50,40.20
2018,04,10,12,51,37.00
2018,04,10,12,52,27.40
2018,04,10,12,53,29.00
2018,04,10,12,54,46.70
2018,04,10,12,55,40.20
2018,04,10,12,56,40.20
2018,04,10,12,57,49.90
2018,04,10,12,58,41.80
2018,04,10,12,59,37.00
2018,04,10,13,00,48.30
2018,04,10,13,01,37.00
2018,04,10,13,02,29.00
2018,04,10,13,03,27.40
2018,04,10,13,04,29.00
2018,04,10,13,05,32.20
2018,04,10,13,06,41.80
2018,04,10,13,07,33.80
2018,04,10,13,08,30.60
2018,04,10,13,09,30.60
2018,04,10,13,10,27.40
2018,04,10,13,11,35.40
2018,04,10,13,12,32.20
2018,04,10,13,13,32.20
2018,04,10,13,14,35.40
2018,04,10,13,15,25.70
2018,04,10,13,16,35.40
2018,04,10,13,17,33.80
2018,04,10,13,18,41.80
2018,04,10,13,19,25.70
2018,04,10,13,20,30.60
2018,04,10,13,21,32.20
2018,04,10,13,22,35.40
2018,04,10,13,23,40.20
2018,04,10,13,24,43.50
2018,04,10,13,25,30.60
2018,04,10,13,26,35.40
2018,04,10,13,27,30.60
2018,04,10,13,28,41.80
2018,04,10,13,29,37.00
2018,04,10,13,30,29.00
2018,04,10,13,31,35.40
2018,04,10,13,32,24.20
2018,04,10,13,33,35.40
2018,04,10,13,34,29.00
2018,04,10,13,35,37.00
2018,04,10,13,36,24.20
2018,04,10,13,37,38.60
2018,04,10,13,38,33.80
2018,04,10,13,39,37.00
2018,04,10,13,40,38.60
2018,04,10,13,41,30.60
2018,04,10,13,42,33.80
2018,04,10,13,43,30.60
2018,04,10,13,44,29.00
2018,04,10,13,45,27.40
2018,04,10,13,46,32.20
2018,04,10,13,47,25.70
2018,04,10,13,48,37.00
2018,04,10,13,49,37.00
2018,04,10,13,50,24.20
2018,04,10,13,51,38.60
2018,04,10,13,52,48.30
2018,04,10,13,53,43.50
2018,04,10,13,54,37.00
2018,04,10,13,55,33.80
2018,04,10,13,56,38.60
2018,04,10,13,57,30.60
2018,04,10,13,58,35.40
2018,04,10,13,59,29.00
2018,04,10,14,00,27.40
2018,04,10,14,01,38.60
2018,04,10,14,02,24.20
2018,04,10,14,03,17.70
2018,04,10,14,04,25.70
2018,04,10,14,05,25.70
2018,04,10,14,06,35.40
2018,04,10,14,07,29.00
2018,04,10,14,08,38.60
2018,04,10,14,09,32.20
2018,04,10,14,10,41.80
2018,04,10,14,11,29.00
2018,04,10,14,12,30.60
2018,04,10,14,13,32.20
2018,04,10,14,14,30.60
2018,04,10,14,15,33.80
2018,04,10,14,16,35.40
2018,04,10,14,17,29.00
2018,04,10,14,18,35.40
2018,04,10,14,19,33.80
2018,04,10,14,20,32.20
2018,04,10,14,21,27.40
2018,04,10,14,22,20.90
2018,04,10,14,23,22.50
2018,04,10,14,24,20.90
2018,04,10,14,25,27.40
2018,04,10,14,26,20.90
2018,04,10,14,27,27.40
2018,04,10,14,28,19.30
2018,04,10,14,29,17.70
2018,04,10,14,30,38.60
2018,04,10,14,31,38.60
2018,04,10,14,32,33.80
2018,04,10,14,33,22.50
2018,04,10,14,34,11.30
2018,04,10,14,35,25.70
2018,04,10,14,36,37.00
2018,04,10,14,37,33.80
2018,04,10,14,38,30.60
2018,04,10,14,39,38.60
2018,04,10,14,40,40.20
2018,04,10,14,41,35.40
2018,04,10,14,42,41.80
2018,04,10,14,43,32.20
2018,04,10,14,44,29.00
2018,04,10,14,45,35.40
2018,04,10,14,46,37.00
2018,04,10,14,47,30.60
2018,04,10,14,48,33.80
2018,04,10,14,49,25.70
2018,04,10,14,50,35.40
2018,04,10,14,51,30.60
2018,04,10,14,52,29.00
2018,04,10,14,53,19.30
2018,04,10,14,54,12.90
2018,04,10,14,55,14.50
2018,04,10,14,56,9.60
2018,04,10,14,57,19.30
2018,04,10,14,58,27.40
2018,04,10,14,59,24.20
2018,04,10,15,00,29.00
2018,04,10,15,01,27.40
2018,04,10,15,02,25.70
2018,04,10,15,03,16.10
2018,04,10,15,04,20.90
2018,04,10,15,05,29.00
2018,04,10,15,06,20.90
2018,04,10,15,07,12.90
2018,04,10,15,08,19.30
2018,04,10,15,09,29.00
2018,04,10,15,10,25.70
2018,04,10,15,11,27.40
2018,04,10,15,12,20.90
2018,04,10,15,13,17.70
2018,04,10,15,14,14.50
2018,04,10,15,15,16.10
2018,04,10,15,16,20.90
2018,04,10,15,17,20.90
2018,04,10,15,18,29.00
2018,04,10,15,19,27.40
2018,04,10,15,20,24.20
2018,04,10,15,21,24.20
2018,04,10,15,22,25.70
2018,04,10,15,23,27.40
2018,04,10,15,24,20.90
2018,04,10,15,25,19.30
2018,04,10,15,26,22.50
2018,04,10,15,27,20.90
2018,04,10,15,28,17.70
2018,04,10,15,29,32.20
2018,04,10,15,30,29.00
2018,04,10,15,31,24.20
2018,04,10,15,32,19.30
2018,04,10,15,33,25.70
2018,04,10,15,34,25.70
2018,04,10,15,35,27.40
2018,04,10,15,36,25.70
2018,04,10,15,37,27.40
2018,04,10,15,38,19.30
2018,04,10,15,39,27.40
2018,04,10,15,40,20.90
2018,04,10,15,41,20.90
2018,04,10,15,42,16.10
2018,04,10,15,43,19.30
2018,04,10,15,44,24.20
2018,04,10,15,45,22.50
2018,04,10,15,46,14.50
2018,04,10,15,47,22.50
2018,04,10,15,48,20.90
2018,04,10,15,49,27.40
2018,04,10,15,50,16.10
2018,04,10,15,51,22.50
2018,04,10,15,52,16.10
2018,04,10,15,53,25.70
2018,04,10,15,54,25.70
2018,04,10,15,55,25.70
2018,04,10,15,56,17.70
2018,04,10,15,57,25.70
2018,04,10,15,58,24.20
2018,04,10,15,59,24.20
2018,04,10,16,00,17.70
2018,04,10,16,01,11.30
2018,04,10,16,02,25.70
2018,04,10,16,03,24.20
2018,04,10,16,04,17.70
2018,04,10,16,05,27.40
2018,04,10,16,06,27.40
2018,04,10,16,07,22.50
2018,04,10,16,08,22.50
2018,04,10,16,09,22.50
2018,04,10,16,10,29.00
2018,04,10,16,11,27.40
2018,04,10,16,12,25.70
2018,04,10,16,13,24.20
2018,04,10,16,14,24.20
2018,04,10,16,15,25.70
2018,04,10,16,16,22.50
2018,04,10,16,17,25.70
2018,04,10,16,18,24.20
2018,04,10,16,19,24.20
2018,04,10,16,20,20.90
2018,04,10,16,21,22.50
2018,04,10,16,22,17.70
2018,04,10,16,23,20.90
2018,04,10,16,24,16.10
2018,04,10,16,25,14.50
2018,04,10,16,26,20.90
2018,04,10,16,27,20.90
2018,04,10,16,28,20.90
2018,04,10,16,29,20.90
2018,04,10,16,30,20.90
2018,04,10,16,31,19.30
2018,04,10,16,32,22.50
2018,04,10,16,33,25.70
2018,04,10,16,34,22.50
2018,04,10,16,35,24.20
2018,04,10,16,36,22.50
2018,04,10,16,37,14.50
2018,04,10,16,38,16.10
2018,04,10,16,39,9.60
2018,04,10,16,40,9.60
2018,04,10,16,41,9.60
2018,04,10,16,42,17.70
2018,04,10,16,43,25.70
2018,04,10,16,44,27.40
2018,04,10,16,45,24.20
2018,04,10,16,46,24.20
2018,04,10,16,47,20.90
2018,04,10,16,48,22.50
2018,04,10,16,49,14.50
2018,04,10,16,50,24.20
2018,04,10,16,51,27.40
2018,04,10,16,52,25.70
2018,04,10,16,53,25.70
2018,04,10,16,54,22.50
2018,04,10,16,55,20.90
2018,04,10,16,56,25.70
2018,04,10,16,57,24.20
2018,04,10,16,58,22.50
2018,04,10,16,59,14.50
2018,04,10,17,00,14.50
2018,04,10,17,01,17.70
2018,04,10,17,02,19.30
2018,04,10,17,03,27.40
2018,04,10,17,04,22.50
2018,04,10,17,05,17.70
2018,04,10,17,06,17.70
2018,04,10,17,07,11.30
2018,04,10,17,08,19.30
2018,04,10,17,09,19.30
2018,04,10,17,10,12.90
2018,04,10,17,11,12.90
2018,04,10,17,12,24.20
2018,04,10,17,13,19.30
2018,04,10,17,14,20.90
2018,04,10,17,15,17.70
2018,04,10,17,16,9.60
2018,04,10,17,17,19.30
2018,04,10,17,18,16.10
2018,04,10,17,19,16.10
2018,04,10,17,20,11.30
2018,04,10,17,21,17.70
2018,04,10,17,22,14.50
2018,04,10,17,23,20.90
2018,04,10,17,24,19.30
2018,04,10,17,25,19.30
2018,04,10,17,26,14.50